Location: Enid
(36.3960°N, 97.8780°W)
Time: 06:40:15
(UTC-06:00)

HST - Visible Passes

Search period start: 26 November 2014 00:00
Search period end: 06 December 2014 00:00
Orbit: 545 x 550 km, 28.5° (Epoch: 24 November)

Date Brightness Start Highest point End Pass type
(mag) Time Alt. Az. Time Alt. Az. Time Alt. Az.
26 Nov 3.1 04:45:40 20° SE 04:45:40 20° SE 04:47:26 10° ESE visible
26 Nov 2.5 06:21:26 10° WSW 06:24:53 25° S 06:28:19 10° SE visible
27 Nov 3.4 04:38:39 17° SE 04:38:39 17° SE 04:39:53 10° ESE visible
27 Nov 2.6 06:14:11 11° WSW 06:17:15 23° S 06:20:34 10° SE visible
28 Nov 3.7 04:31:36 14° SE 04:31:36 14° SE 04:32:18 10° ESE visible
28 Nov 2.7 06:07:08 13° SW 06:09:37 20° SSW 06:12:44 10° SE visible
29 Nov 4.0 04:24:32 11° SE 04:24:32 11° SE 04:24:39 10° SE visible
29 Nov 2.8 06:00:04 14° SW 06:01:58 18° SSW 06:04:48 10° SSE visible
30 Nov 2.9 05:53:00 13° SW 05:54:18 15° SSW 05:56:42 10° SSE visible
01 Dec 3.1 05:45:57 12° SSW 05:46:36 12° SSW 05:48:18 10° S visible
